Regional Weather Roundup
Issued by NWS

Home | Current Version | Previous Version | Text Only | Print | Product List | Glossary On
Versions: 1 2 3 4 5 6 7 8 9 10 11 12 13 14 15 16 17 18 19 20 21 22 23 24 25 26 27 28 29 30 31 32 33 34 35 36 37 38 39 40 41 42 43 44 45 46 47 48 49 50
000
ASUS46 KLOX 191712
RWRCA

SOUTHERN CALIFORNIA WEATHER ROUNDUP
NATIONAL WEATHER SERVICE OXNARD CALIFORNIA
900 AM PST FRI DEC 19 2014

NOTE: "FAIR" INDICATES FEW OR NO CLOUDS BELOW 12,000 FEET WITH NO
SIGNIFICANT WEATHER AND/OR OBSTRUCTIONS TO VISIBILITY.

  -  STATIONS PRECEEDED BY AN ASTERISK (*) ARE NOT NWS OR FAA
     STATIONS AND ARE NOT SUBJECT TO NWS AND FAA QUALITY CONTROL.

CAZ041-042-087-191800-
LA AND ORANGE COUNTY COASTAL AREAS


CITY           SKY/WX    TMP DP  RH WIND       PRES   REMARKS
L.A. DOWNTOWN  SUNNY     56  45  66 CALM      30.24R
L.A. AIRPORT   MOSUNNY   56  45  66 NE5       30.24R
LONG BEACH     SUNNY     56  48  74 CALM      30.24R

CITY           SKY/WX    TMP DP  RH WIND       PRES   REMARKS
AVALON           N/A     55 N/A N/A MISG        N/A
FULLERTON      SUNNY     56  47  71 E3        30.23R
HAWTHORNE      SUNNY     58  45  62 E3        30.24R
*LOS ALAMITOS  MOSUNNY   55  49  78 NE5       30.24R
*REDONDO BEACH   N/A     52  49  91 SW1       30.23R
SANTA ANA      MOSUNNY   59  46  62 CALM      30.23S
STA MONICA APT SUNNY     59  45  59 CALM      30.24R
TORRANCE       MOSUNNY   59  50  72 CALM      30.24R
*UCLA            N/A     61  43  51 NE2       30.22R

$$

CAZ547-548-048-191800-
LA COUNTY VALLEYS AND INLAND EMPIRE


CITY           SKY/WX    TMP DP  RH WIND       PRES   REMARKS
BURBANK        SUNNY     52  43  71 CALM      30.23R
VAN NUYS       SUNNY     50  44  80 NW3       30.23R

CITY           SKY/WX    TMP DP  RH WIND       PRES   REMARKS
CORONA AIRPORT SUNNY     51  47  86 VRB3      30.26S
*CHATSWORTH      N/A     54  49  83 CALM      30.25R
CHINO          MOSUNNY   50  45  83 CALM      30.26S
*CLAREMONT       N/A     59  43  56 CALM        N/A
MARCH AFB      SUNNY     47  47  99 NE1       30.25R
*NORTHRIDGE      N/A     52  45  76 W1          N/A
ONTARIO        MOSUNNY   54  42  64 E6        30.24R
*PASADENA        N/A     55  46  71 E2          N/A
POMONA         SUNNY     52  43  71 CALM      30.26S
RIVERSIDE      SUNNY     50  43  77 E3        30.25R
SAN BERNARDINO NOT AVBL
*SAN GABRIEL     N/A     56  46  68 CALM      30.22R
*WHITEMAN AP   NOT AVBL
*WOODLAND HILL   N/A     52  46  82 W2          N/A

$$

CAZ054-055-191800-
LA AND SAN BERNARDINO COUNTY MOUNTAINS


CITY           SKY/WX    TMP DP  RH WIND       PRES   REMARKS
*ACTON           N/A     37  33  85 NW7         N/A  WCI  32
*BIG BEAR AIRP SUNNY     28  27  93 W5        30.27R WCI  23
*BIG PINES       N/A     44  18  35 CALM        N/A
MT WILSON NWS    N/A     45  34  65 MISG        N/A
SANDBERG       SUNNY     48  36  63 NE5       30.23R
*WARM SPRINGS    N/A     49  37  64 E2          N/A

$$

CAZ028-029-059-060-099-191800-
ANTELOPE VALLEY AND SURROUNDING AREAS


CITY           SKY/WX    TMP DP  RH WIND       PRES   REMARKS
LANCASTER      SUNNY     40  35  83 CALM      30.26R
PALMDALE       SUNNY     42  37  82 CALM      30.25R

CITY           SKY/WX    TMP DP  RH WIND       PRES   REMARKS
29 PALMS       PTSUNNY   40  35  83 N5        30.33R
BARSTOW/DAGGET SUNNY     43  36  76 W8        30.28R
BISHOP         PTSUNNY   33  29  85 E3        30.22S
CHINA LAKE     SUNNY     39  37  92 CALM      30.26R
EDWARDS AFB    MOSUNNY   38  37  94 N2        30.25R
MOJAVE         FAIR      45  37  76 E5        30.25R
NEEDLES        MOSUNNY   49  39  68 SE5       30.26R
VICTORVILLE      N/A     39  34  81 S3        30.25S

$$

CAZ039-040-191800-
VENTURA AND SANTA BARBARA COUNTY COAST


CITY           SKY/WX    TMP DP  RH WIND       PRES   REMARKS
CAMARILLO      MOSUNNY   55  44  66 E7        30.23S
NWS OXNARD       N/A     54  45  73 CALM      30.23S
OXNARD AIRPORT MOSUNNY   55  43  63 NE13      30.23R
*POINT MUGU    MOSUNNY   57  46  66 NE6       30.24R
SBA APT/GOLETA MOSUNNY   57  50  77 CALM      30.21F
*SANTA BARBARA   N/A     58  50  73 CALM      30.30R
*VENTURA         N/A     54  42  64 N3        30.29S

$$

CAZ044-045-191800-
VENTURA COUNTY VALLEYS


CITY           SKY/WX    TMP DP  RH WIND       PRES   REMARKS
*SIMI VALLEY     N/A     57  45  65 CALM      30.23S
*OJAI            N/A     51  49  95 CALM      30.21F
*FILLMORE        N/A     50  47  89 CALM      30.16S

$$

CAZ053-191800-
VENTURA COUNTY MOUNTAINS


CITY           SKY/WX    TMP DP  RH WIND       PRES   REMARKS
*LOCKWOOD VLY    N/A     34  28  80 MISG        N/A
*ROSE VALLEY     N/A     41  43 100 MISG        N/A

$$

CAZ034-035-036-191800-
CENTRAL COAST AND SANTA YNEZ VALLEY


CITY           SKY/WX    TMP DP  RH WIND       PRES   REMARKS
SAN LUIS OBISP CLOUDY    53  50  89 E3        30.23R
SANTA MARIA    CLOUDY    57  49  74 S3        30.23R

CITY           SKY/WX    TMP DP  RH WIND       PRES   REMARKS
*CAL POLY SLO    N/A     50  50 100 NE2         N/A
*LOMPOC        MOSUNNY   52  46  82 E5        30.23R
*PISMO BEACH     N/A     55  52  89 CALM      30.24R
*SANTA YNEZ    FAIR      52  46  82 E7        30.23R

$$

CAZ037-038-051-191800-
SAN LUIS OBISPO COUNTY INTERIOR AND CUYAMA VALLEY


CITY           SKY/WX    TMP DP  RH WIND       PRES   REMARKS
*CUYAMA          N/A     43  41  91 CALM      30.20F
PASO ROBLES    CLOUDY    47  45  93 SE3       30.22R

$$

CAZ032-033-061-191800-
SOUTHERN DESERTS


CITY           SKY/WX    TMP DP  RH WIND       PRES   REMARKS
BLYTHE         MOSUNNY   50  41  71 CALM      30.26R
IMPERIAL       PTSUNNY   53  47  79 W5        30.25R
PALM SPRINGS   MOSUNNY   54  42  64 NW7       30.27R
THERMAL        MOSUNNY   50  42  74 CALM      30.23R

$$

ELSEWHERE ACROSS THE WESTERN UNITED STATES AND MEXICO


CITY           SKY/WX    TMP DP  RH WIND       PRES   REMARKS
DENVER, CO     MOSUNNY   35  25  66 SW9       30.10S WCI  28
GRAND CANYON,  SUNNY     32  29  88 CALM      30.26R
HONOLULU, HI   PTCLDY    73  64  73 E7        30.09R
KAHULUI, MAUI  PTCLDY    63  59  87 S5        30.09R
LAKE TAHOE, CA CLOUDY    43  19  38 S8        30.10R
LAS VEGAS, NV  PTSUNNY   45  36  70 S8        30.23R
MAMMOTH LAKES, FAIR      25  21  86 N6        30.17S WCI  18
MEXICO CITY, M MOSUNNY   66  45  45 E7        30.33F
PHOENIX, AZ    MOSUNNY   54  38  54 E7        30.24R
PORTLAND, OR   MOCLDY    45  43  93 E12       29.99R
RENO, NV       CLOUDY    43  23  45 VRB3      30.09R
SALT LAKE CITY PTSUNNY   37  28  70 SE12      30.19S WCI  29
SAN DIEGO, CA  MOSUNNY   58  44  60 CALM      30.26R
SAN FRANCISCO, CLOUDY    57  55  93 S3        30.15R
SAN JOSE, CA   CLOUDY    55  47  74 SE12      30.18R
SEATTLE, WA    CLOUDY    47  41  80 S9        29.91R
TIJUANA, MEX   MOSUNNY   54  43  66 SE3       30.27R

$$

STATION/POSITION TIME  TEMP    WIND        PRES    VSBY  WAVE
                       AIR SEA DIR/SP/G                  HT/PER
                 (UTC) (F)     (DEG/KT/KT) (MB)    (MI)  (FT/S)
POINT ARGUELLO B NOT AVBL
WEST SANTA BARBA 1700   60 61  200/  4/  4 1022.8R         6/12
POINT CONCEPTION NOT AVBL
EAST SANTA BARBA NOT AVBL
SANTA MONICA BAY 1700   60 63   90/  4/  6 1024.0R         3/14



USA.gov is the U.S. government's official web portal to all federal, state and local government web resources and services.